Location: Heisler
(52.6701°N, 112.2239°W)
Time: 10:05:38
(UTC+00:00)

Envisat - Pass Details

Date: 09 December 2021
Orbit: 764 x 766 km, 98.2° (Epoch: 28 January)

Event Time Altitude Azimuth Distance (km) Brightness Sun altitude
Rises 14:03:37 0° 8° (N) 3,248 6.1 -11.9°
Reaches altitude 10° 14:06:16 10° 356° (N) 2,317 5.2 -11.6°
Maximum altitude 14:10:23 26° 302° (WNW) 1,499 3.9 -11.0°
Drops below altitude 10° 14:14:29 10° 247° (WSW) 2,304 5.1 -10.4°
Sets 14:17:07 0° 235° (SW) 3,226 5.9 -10.1°
